Find Starlink 30784

NORAD ID: 58156 Int'l Des: 2023-166 Owner: SPXS Country: US Constellation: starlink operational
LEOCIRCULAR

リアルタイム位置

3D地球を読み込み中...

Starlink 30784について

説明を読み込み中...

次回通過

Passes for default location (London). Set your location on the main map for personalized predictions.

高度履歴

Loading altitude history...

軌道要素

1 58156U 23166G 26124.78821541 -.00000412 00000-0 -17763-5 0 9992
2 58156 53.1621 319.3537 0001201 98.3163 261.7974 15.30189286141612
Epoch: May 4, 2026 • Age: 6 hours

現在のステータス

高度 494.1 km
速度 7.62 km/s
衛星直下点 -51.89°S, 10.87°E
打ち上げ日 Oct 29, 2023
運用期間 2.5 years
タイプ internet

技術仕様

分類 Payload
質量 730.00 kg
乾燥質量 700.00 kg
総質量 730.00 kg
長さ 0.30 m
直径 4.10 m
スパン 29.00 m
形状 Box + pan
製造者 SPXS
バスタイプ Starlink V2M
フェーズステータス In Orbit
所有者/国 SPXS/US

Most Searched